Location: Tierz
(42.1336°N, 0.3549°W)
Time: 22:44:31
(UTC+00:00)

GPS 2-04 Rocket1 - Pass Details

Date: 29 October 2020
Orbit: 418 x 546 km, 35.6° (Epoch: 25 November)

Event Time Altitude Azimuth Distance (km) Brightness Sun altitude
Rises 18:51:40 0° 243° (WSW) 2,628 7.3 -21.5°
Reaches altitude 10° 18:54:03 10° 233° (SW) 1,760 6.1 -21.9°
Enters shadow 18:57:20 30° 179° (S) 983 4.0 -22.5°
